BYNCTR-WX Weather Reports


time (UTC)temp
F
wind
direction
speed
knots
gust
knots
rain 1hr
in
rain 24hr
in
rain mn
in
humidity
%
barometer
mb
20260901161605 85 243 7.0 0.0 0.00 0.00 0.00 73 987.4
20260901160106 84 244 6.1 0.0 0.00 0.00 0.00 73 987.4
20260901154605 84 241 7.0 0.0 0.00 0.00 0.00 82 987.1
20260901153101 83 241 6.1 0.0 0.00 0.00 0.00 82 987.1
20260901151602 81 248 5.2 0.0 0.00 0.00 0.00 82 987.1
20260901144600 80 245 5.2 0.0 0.00 0.00 0.00 90 986.3
20260901143106 79 236 4.3 0.0 0.00 0.00 0.00 85 987.5
20260901141606 78 230 4.3 0.0 0.00 0.00 0.00 82 988.0
20260901140106 77 222 5.2 0.0 0.00 0.00 0.00 82 988.0
20260901134607 76 226 5.2 0.0 0.00 0.00 0.00 87 987.3
20260901133106 75 217 5.2 0.0 0.00 0.00 0.00 87 987.3
20260901131605 75 203 6.1 0.0 0.00 0.00 0.00 87 987.3
20260901130110 74 193 6.1 0.0 0.00 0.00 0.00 87 987.3
20260901124627 73 192 4.3 0.0 0.00 0.00 0.00 91 986.7
20260901123106 72 188 3.5 0.0 0.00 0.00 0.00 90 986.5
20260901121605 71 177 3.5 0.0 0.00 0.00 0.00 90 986.5
20260901120113 70 180 4.3 0.0 0.00 0.00 0.00 90 986.5
20260901114606 69 183 3.5 0.0 0.00 0.00 0.00 90 985.7
20260901113111 69 185 3.5 0.0 0.00 0.00 0.00 89 986.1
20260901111606 69 185 3.5 0.0 0.00 0.00 0.00 89 986.1
20260901110110 69 189 4.3 0.0 0.00 0.00 0.00 89 986.1
20260901104609 69 185 4.3 0.0 0.00 0.00 0.00 88 986.5
20260901103110 69 185 4.3 0.0 0.00 0.00 0.00 88 986.5
20260901101613 69 189 4.3 0.0 0.00 0.00 0.00 88 986.5
20260901100113 69 180 4.3 0.0 0.00 0.00 0.00 88 986.5
20260901094606 70 192 4.3 0.0 0.00 0.00 0.00 88 985.5
20260901093111 70 189 4.3 0.0 0.00 0.00 0.00 88 985.8
20260901091612 70 199 4.3 0.0 0.00 0.00 0.00 88 985.7
20260901090111 70 202 4.3 0.0 0.00 0.00 0.00 88 985.7
20260901084605 70 208 5.2 0.0 0.00 0.00 0.00 89 985.4
20260901083110 71 207 5.2 0.0 0.00 0.00 0.00 89 985.0
20260901081611 71 214 5.2 0.0 0.00 0.00 0.00 89 985.0
20260901080107 71 207 5.2 0.0 0.00 0.00 0.00 89 985.5
20260901074611 70 207 5.2 0.0 0.00 0.00 0.00 90 985.2
20260901073110 70 205 5.2 0.0 0.00 0.00 0.00 90 985.2
20260901071605 71 207 5.2 0.0 0.00 0.00 0.00 90 985.2
20260901070105 71 203 4.3 0.0 0.00 0.00 0.00 90 985.2
20260901064612 71 214 4.3 0.0 0.00 0.00 0.00 90 985.4
20260901063059 71 215 4.3 0.0 0.00 0.00 0.00 90 985.4
20260901061606 71 218 5.2 0.0 0.00 0.00 0.00 90 985.4
20260901060110 71 207 5.2 0.0 0.00 0.00 0.00 90 985.4
20260901054610 71 204 6.1 0.0 0.00 0.00 0.00 88 985.6
20260901053111 71 188 5.2 0.0 0.00 0.00 0.00 88 985.4
20260901051605 71 192 4.3 0.0 0.00 0.00 0.00 88 985.4
20260901050116 71 204 3.5 0.0 0.00 0.00 0.00 88 985.4
20260901044610 71 196 4.3 0.0 0.00 0.00 0.00 82 985.7
20260901043105 72 209 4.3 0.0 0.00 0.00 0.00 86 985.5
20260901041609 72 210 4.3 0.0 0.00 0.00 0.00 86 985.5
20260901040114 72 214 4.3 0.0 0.00 0.00 0.00 86 985.5
20260901034609 72 211 3.5 0.0 0.00 0.00 0.00 83 985.4
20260901033109 72 213 2.6 0.0 0.00 0.00 0.00 86 985.6
20260901031609 72 216 4.3 0.0 0.00 0.00 0.00 86 985.6
20260901030109 72 207 5.2 0.0 0.00 0.00 0.00 86 985.6
20260901024609 72 212 4.3 0.0 0.00 0.00 0.00 83 986.6
20260901023109 73 211 3.5 0.0 0.00 0.00 0.00 84 986.1
20260901021607 74 208 7.8 0.0 0.00 0.00 0.00 84 986.1
20260901020114 73 211 7.0 0.0 0.00 0.00 0.00 84 986.1
20260901014608 74 206 7.0 0.0 0.00 0.00 0.00 86 986.1
20260901013106 73 205 5.2 0.0 0.00 0.00 0.00 86 986.1
20260901011608 73 216 5.2 0.0 0.00 0.00 0.00 86 986.1
20260901010110 73 203 4.3 0.0 0.00 0.00 0.00 86 986.1
20260901004608 74 216 5.2 0.0 0.00 0.00 0.00 82 986.1
20260901003107 74 233 4.3 0.0 0.00 0.00 0.00 82 985.6
20260901001607 75 215 5.2 0.0 0.00 0.00 0.00 82 985.7
20260901000106 76 216 6.1 0.0 0.00 0.00 0.00 82 985.7
20260831234609 77 220 4.3 0.0 0.00 0.01 0.01 74 985.8
20260831233109 78 216 4.3 0.0 0.00 0.01 0.01 70 985.5
20260831231609 79 224 6.1 0.0 0.00 0.01 0.01 70 985.5
20260831230111 80 216 5.2 0.0 0.00 0.01 0.01 70 985.5
20260831224609 81 212 7.0 0.0 0.00 0.01 0.01 65 985.9
20260831223111 82 210 8.7 0.0 0.00 0.01 0.01 61 986.3
20260831221606 83 212 10.4 0.0 0.00 0.01 0.01 61 986.3
20260831220109 83 210 11.3 0.0 0.00 0.01 0.01 61 986.3
20260831214609 84 204 11.3 0.0 0.00 0.01 0.01 63 986.9
20260831213106 84 201 11.3 0.0 0.00 0.01 0.01 58 986.4
20260831211608 85 205 12.2 0.0 0.00 0.01 0.01 58 986.5
20260831210109 85 202 11.3 0.0 0.00 0.01 0.01 58 986.5
20260831204606 85 201 11.3 0.0 0.00 0.01 0.01 66 987.4
20260831203106 84 200 11.3 0.0 0.00 0.01 0.01 79 986.9
20260831201608 80 192 9.6 0.0 0.00 0.02 0.02 79 986.7
20260831200109 78 185 9.6 0.0 0.00 0.02 0.02 79 987.2
20260831194608 78 187 9.6 0.0 0.02 0.02 0.02 76 987.9
20260831193108 79 205 11.3 0.0 0.02 0.02 0.02 76 987.9
20260831191608 77 241 4.3 0.0 0.02 0.02 0.02 76 987.9
20260831190110 78 198 6.1 0.0 0.02 0.02 0.02 69 987.3
20260831184606 81 201 11.3 0.0 0.00 0.00 0.00 62 987.7
20260831183107 85 187 11.3 0.0 0.00 0.00 0.00 62 987.7
20260831181607 84 184 11.3 0.0 0.00 0.00 0.00 62 987.7
20260831180108 83 185 10.4 0.0 0.00 0.00 0.00 62 987.7
20260831174607 83 197 10.4 0.0 0.00 0.00 0.00 64 988.6
20260831173107 83 199 11.3 0.0 0.00 0.00 0.00 64 987.3
20260831171607 82 200 10.4 0.0 0.00 0.00 0.00 64 987.3
20260831170107 81 200 10.4 0.0 0.00 0.00 0.00 64 987.3
20260831164607 80 196 10.4 0.0 0.00 0.00 0.00 70 989.0
20260831163307 0 0 0.0 0.0 0.00 0.00 0.00 100